Stetsonville, WI

9:05 AM CDT on August 29, 2016 (GMT -0500)
Taylor County

Weather History for KMDZ - May, 2013

Change the Weather History Date:

Saturday, May 25, 2013

  Actual Average Record
Temperature  
Mean Temperature 54 °F -  
Max Temperature 62 °F 68 °F 85 °F (1977)
Min Temperature 46 °F 45 °F 31 °F (1979)
Degree Days  
Heating Degree Days 11    
Growing Degree Days 4 (Base 50)    
Moisture  
Dew Point 42 °F    
Average Humidity 65    
Maximum Humidity 87    
Minimum Humidity 39    
Precipitation  
Precipitation 0.00 in - - ()
Sea Level Pressure  
Sea Level Pressure 30.31 in    
Wind  
Wind Speed 7 mph (SE)    
Max Wind Speed 14 mph    
Max Gust Speed 21 mph    
Visibility 10 miles    
Events      
Averages and records for this station are not official NWS values.
T = Trace of Precipitation, MM = Missing Value Source: NWS Daily Summary

Daily Weather History Graph

Daily Weather History Graph

Search for Another Location

Airport or City:

Trip Planner

Search our weather history database for the weather conditions in past years. The results will help you decide how hot, cold, wet, or windy it might be!

Date:

Astronomy

May. 25, 2013 Rise Set
Actual Time 5:21 AM CDT 8:35 PM CDT
Civil Twilight 4:46 AM CDT 9:10 PM CDT
Nautical Twilight 4:00 AM CDT 9:57 PM CDT
Astronomical Twilight 3:03 AM CDT 10:54 PM CDT
Moon 9:22 PM CDT (5/25) 5:49 AM CDT (5/25)
Length of Visible Light 16h 24m
Length of Day
15h 13m
Full, 100% of the Moon is Illuminated
May 25
Full
May 31
Last Quarter
Jun 8
New
Jun 16
First Quarter
Jun 23
Full

Hourly Weather History & Observations

Time (CDT) Temp. Windchill Dew Point Humidity Pressure Visibility Wind Dir Wind Speed Gust Speed Precip Events Conditions
12:15 AM 50.0 °F - 41.0 °F 71% 30.30 in 10.0 mi SE 5.8 mph - N/A   Clear
12:35 AM 50.0 °F - 41.0 °F 71% 30.29 in 10.0 mi SSE 5.8 mph - N/A   Clear
12:55 AM 48.2 °F - 41.0 °F 76% 30.29 in 10.0 mi SSE 3.5 mph - N/A   Clear
1:15 AM 48.2 °F - 42.8 °F 82% 30.30 in 10.0 mi ESE 3.5 mph - N/A   Clear
1:35 AM 46.4 °F 45.2 °F 42.8 °F 87% 30.30 in 10.0 mi East 3.5 mph - N/A   Clear
1:55 AM 48.2 °F - 42.8 °F 82% 30.29 in 10.0 mi ESE 5.8 mph - N/A   Clear
2:15 AM 48.2 °F - 42.8 °F 82% 30.29 in 10.0 mi ESE 5.8 mph - N/A   Clear
2:35 AM 48.2 °F - 41.0 °F 76% 30.29 in 10.0 mi ESE 5.8 mph - N/A   Clear
2:55 AM 48.2 °F - 41.0 °F 76% 30.29 in 10.0 mi ESE 5.8 mph - N/A   Clear
3:15 AM 48.2 °F - 39.2 °F 71% 30.29 in 10.0 mi ESE 4.6 mph - N/A   Clear
3:35 AM 46.4 °F 43.5 °F 41.0 °F 81% 30.28 in 10.0 mi ESE 5.8 mph - N/A   Clear
3:55 AM 46.4 °F 43.5 °F 41.0 °F 81% 30.29 in 10.0 mi SE 5.8 mph - N/A   Clear
4:15 AM 48.2 °F - 41.0 °F 76% 30.29 in 10.0 mi SE 5.8 mph - N/A   Scattered Clouds
4:35 AM 48.2 °F - 41.0 °F 76% 30.29 in 10.0 mi SSE 5.8 mph - N/A   Mostly Cloudy
4:55 AM 48.2 °F - 42.8 °F 82% 30.30 in 10.0 mi East 9.2 mph - N/A   Scattered Clouds
5:15 AM 46.4 °F 42.9 °F 42.8 °F 87% 30.31 in 10.0 mi East 6.9 mph - N/A   Mostly Cloudy
5:35 AM 46.4 °F 42.4 °F 42.8 °F 87% 30.33 in 10.0 mi ESE 8.1 mph - N/A   Mostly Cloudy
5:55 AM 46.4 °F 44.3 °F 42.8 °F 87% 30.34 in 10.0 mi ESE 4.6 mph - N/A   Scattered Clouds
6:15 AM 46.4 °F 42.9 °F 42.8 °F 87% 30.34 in 10.0 mi ESE 6.9 mph - N/A   Scattered Clouds
6:35 AM 46.4 °F 43.5 °F 42.8 °F 87% 30.35 in 10.0 mi SE 5.8 mph - N/A   Mostly Cloudy
6:55 AM 46.4 °F 43.5 °F 42.8 °F 87% 30.35 in 10.0 mi SSE 5.8 mph - N/A   Scattered Clouds
7:15 AM 48.2 °F - 42.8 °F 82% 30.36 in 10.0 mi ESE 3.5 mph - N/A   Clear
7:35 AM 48.2 °F - 42.8 °F 82% 30.35 in 10.0 mi ESE 5.8 mph - N/A   Scattered Clouds
7:55 AM 48.2 °F - 42.8 °F 82% 30.34 in 10.0 mi ESE 6.9 mph - N/A   Mostly Cloudy
8:15 AM 48.2 °F - 42.8 °F 82% 30.34 in 10.0 mi ESE 9.2 mph - N/A   Scattered Clouds
8:35 AM 50.0 °F - 42.8 °F 76% 30.35 in 10.0 mi ESE 8.1 mph - N/A   Scattered Clouds
8:55 AM 51.8 °F - 44.6 °F 76% 30.34 in 10.0 mi ESE 10.4 mph - N/A   Scattered Clouds
9:15 AM 51.8 °F - 44.6 °F 76% 30.35 in 10.0 mi SE 5.8 mph - N/A   Scattered Clouds
9:35 AM 51.8 °F - 44.6 °F 76% 30.35 in 10.0 mi ESE 9.2 mph - N/A   Overcast
9:55 AM 53.6 °F - 44.6 °F 72% 30.35 in 10.0 mi SE 9.2 mph - N/A   Overcast
10:15 AM 53.6 °F - 44.6 °F 72% 30.34 in 10.0 mi ESE 9.2 mph - N/A   Overcast
10:35 AM 53.6 °F - 44.6 °F 72% 30.35 in 10.0 mi ESE 11.5 mph - N/A   Mostly Cloudy
10:55 AM 53.6 °F - 42.8 °F 67% 30.34 in 10.0 mi ESE 11.5 mph - N/A   Scattered Clouds
11:15 AM 55.4 °F - 44.6 °F 67% 30.34 in 10.0 mi SE 10.4 mph - N/A   Scattered Clouds
11:35 AM 55.4 °F - 42.8 °F 63% 30.34 in 10.0 mi SE 9.2 mph - N/A   Scattered Clouds
11:55 AM 57.2 °F - 42.8 °F 59% 30.34 in 10.0 mi SSE 9.2 mph - N/A   Scattered Clouds
12:15 PM 57.2 °F - 42.8 °F 59% 30.34 in 10.0 mi SE 11.5 mph 19.6 mph N/A   Scattered Clouds
12:35 PM 59.0 °F - 42.8 °F 55% 30.33 in 10.0 mi SE 11.5 mph - N/A   Scattered Clouds
1:15 PM 60.8 °F - 44.6 °F 55% 30.32 in 10.0 mi SE 13.8 mph - N/A   Clear
1:35 PM 60.8 °F - 42.8 °F 52% 30.32 in 10.0 mi South 9.2 mph 17.3 mph N/A   Clear
1:55 PM 62.6 °F - 42.8 °F 48% 30.32 in 10.0 mi SE 10.4 mph 16.1 mph N/A   Clear
2:15 PM 62.6 °F - 42.8 °F 48% 30.32 in 10.0 mi SE 13.8 mph 20.7 mph N/A   Clear
2:35 PM 62.6 °F - 42.8 °F 48% 30.32 in 10.0 mi South 11.5 mph - N/A   Scattered Clouds
2:55 PM 62.6 °F - 41.0 °F 45% 30.32 in 10.0 mi South 10.4 mph - N/A   Scattered Clouds
3:15 PM 62.6 °F - 42.8 °F 48% 30.32 in 10.0 mi SSE 8.1 mph - N/A   Clear
3:35 PM 62.6 °F - 42.8 °F 48% 30.31 in 10.0 mi South 11.5 mph - N/A   Clear
3:55 PM 62.6 °F - 42.8 °F 48% 30.31 in 10.0 mi SSE 9.2 mph - N/A   Scattered Clouds
4:15 PM 62.6 °F - 41.0 °F 45% 30.31 in 10.0 mi South 8.1 mph - N/A   Scattered Clouds
4:35 PM 62.6 °F - 39.2 °F 42% 30.30 in 10.0 mi South 8.1 mph - N/A   Clear
4:55 PM 62.6 °F - 39.2 °F 42% 30.30 in 10.0 mi South 9.2 mph - N/A   Clear
5:15 PM 62.6 °F - 37.4 °F 39% 30.29 in 10.0 mi South 9.2 mph - N/A   Clear
5:35 PM 62.6 °F - 37.4 °F 39% 30.29 in 10.0 mi SE 10.4 mph - N/A   Clear
5:55 PM 62.6 °F - 39.2 °F 42% 30.29 in 10.0 mi SE 9.2 mph - N/A   Clear
6:35 PM 62.6 °F - 37.4 °F 39% 30.28 in 10.0 mi ESE 6.9 mph - N/A   Clear
6:55 PM 62.6 °F - 39.2 °F 42% 30.28 in 10.0 mi SSE 4.6 mph - N/A   Clear
7:15 PM 62.6 °F - 39.2 °F 42% 30.28 in 10.0 mi SE 3.5 mph - N/A   Clear
7:35 PM 60.8 °F - 39.2 °F 45% 30.28 in 10.0 mi ESE 5.8 mph - N/A   Clear
7:55 PM 60.8 °F - 39.2 °F 45% 30.28 in 10.0 mi SE 3.5 mph - N/A   Clear
8:35 PM 57.2 °F - 41.0 °F 55% 30.28 in 10.0 mi SE 3.5 mph - N/A   Clear
8:55 PM 55.4 °F - 39.2 °F 54% 30.28 in 10.0 mi SE 3.5 mph - N/A   Clear
9:55 PM 53.6 °F - 39.2 °F 58% 30.28 in 10.0 mi SE 5.8 mph - N/A   Clear
10:15 PM 53.6 °F - 39.2 °F 58% 30.28 in 10.0 mi SE 4.6 mph - N/A   Clear
10:35 PM 53.6 °F - 39.2 °F 58% 30.29 in 10.0 mi SSE 5.8 mph - N/A   Clear
10:55 PM 53.6 °F - 39.2 °F 58% 30.30 in 10.0 mi SE 3.5 mph - N/A   Clear
11:15 PM 51.8 °F - 41.0 °F 67% 30.30 in 10.0 mi SSE 3.5 mph - N/A   Clear
11:35 PM 51.8 °F - 41.0 °F 67% 30.29 in 10.0 mi SE 5.8 mph - N/A   Clear
11:55 PM 51.8 °F - 41.0 °F 67% 30.29 in 10.0 mi ESE 4.6 mph - N/A   Clear